Back to catalog

BREEZE-M DEB

AliveHEO
NORAD 34250·DEBRIS·🇷🇺 Russia

Launched Feb 28, 2006 from Baikonur Cosmodrome

Loading…

Next Passes (next 24 hours)

TLE

FreshSource: Space-Track

Epoch: Sep 13, 2026, 21:49 UTC

1 34250U 06006BR  26256.90970369  .00001025  00000-0  17994-2 0  9990
2 34250  51.6944 114.0633 5025770  50.7291 344.2014  5.33256915 42163

Track BREEZE-M DEB in real time with AllMySat

Download on the App Store